TimeWET,TemperatureF,Dew PointF,Humidity,Sea Level PressureIn,VisibilityMPH,Wind Direction,Wind SpeedMPH,Gust SpeedMPH,PrecipitationIn,Events,Conditions,WindDirDegrees,DateUTC
12:00 AM,55,53,92,29.91,4,Calm,Calm,,,,Clear,,2012-11-15 00:00:00
12:00 AM,55.4,53.6,94,29.89,3.7,Calm,Calm,-,N/A,,Unknown,0,2012-11-15 00:00:00
12:30 AM,55.4,53.6,94,29.89,3.7,Calm,Calm,-,N/A,,Unknown,0,2012-11-15 00:30:00
1:00 AM,55.4,51.8,88,29.89,3.7,Calm,Calm,-,N/A,,Unknown,0,2012-11-15 01:00:00
1:30 AM,53.6,51.8,94,29.89,3.7,Calm,Calm,-,N/A,,Unknown,0,2012-11-15 01:30:00
2:00 AM,55.4,51.8,88,29.89,3.7,SE,5.8,-,N/A,,Unknown,130,2012-11-15 02:00:00
2:30 AM,55.4,51.8,88,29.89,3.7,Variable,1.2,-,N/A,,Unknown,0,2012-11-15 02:30:00
3:00 AM,55,51,82,29.90,4,Calm,Calm,,,,Clear,,2012-11-15 03:00:00
3:00 AM,55.4,51.8,88,29.89,3.7,Calm,Calm,-,N/A,,Unknown,0,2012-11-15 03:00:00
3:30 AM,55.4,50.0,82,29.89,3.7,Calm,Calm,-,N/A,,Unknown,0,2012-11-15 03:30:00
4:00 AM,55.4,50.0,82,29.89,3.7,Calm,Calm,-,N/A,,Unknown,0,2012-11-15 04:00:00
4:30 AM,53.6,50.0,88,29.89,3.7,Calm,Calm,-,N/A,,Unknown,0,2012-11-15 04:30:00
5:00 AM,51.8,48.2,88,29.89,3.7,Calm,Calm,-,N/A,,Unknown,0,2012-11-15 05:00:00
5:30 AM,51.8,50.0,94,29.89,3.7,Calm,Calm,-,N/A,,Unknown,0,2012-11-15 05:30:00
6:00 AM,51,48,87,29.93,4,Calm,Calm,,,,Clear,,2012-11-15 06:00:00
6:00 AM,50.0,48.2,94,29.92,3.7,Calm,Calm,-,N/A,,Unknown,0,2012-11-15 06:00:00
6:30 AM,51.8,50.0,94,29.92,3.7,Calm,Calm,-,N/A,,Unknown,0,2012-11-15 06:30:00
7:00 AM,55.4,50.0,82,29.92,3.7,Calm,Calm,-,N/A,,Unknown,0,2012-11-15 07:00:00
7:30 AM,57.2,51.8,82,29.95,3.7,SSW,8.1,-,N/A,,Unknown,200,2012-11-15 07:30:00
8:00 AM,57.2,53.6,88,29.95,3.7,SSW,6.9,-,N/A,,Unknown,200,2012-11-15 08:00:00
8:30 AM,59.0,55.4,88,29.98,3.7,SSW,6.9,-,N/A,,Unknown,200,2012-11-15 08:30:00
9:00 AM,61,56,77,29.99,4,SSW,8.1,,,,Mostly Cloudy,200,2012-11-15 09:00:00
9:00 AM,60.8,55.4,82,29.98,3.7,SSW,8.1,-,N/A,,Scattered Clouds,200,2012-11-15 09:00:00
9:30 AM,62.6,55.4,77,29.98,3.7,SW,10.4,-,N/A,,Scattered Clouds,220,2012-11-15 09:30:00
10:00 AM,64.4,57.2,77,29.98,3.7,SW,9.2,-,N/A,,Scattered Clouds,230,2012-11-15 10:00:00
11:00 AM,68.0,55.4,64,29.98,3.7,WSW,8.1,-,N/A,,Scattered Clouds,240,2012-11-15 11:00:00
11:30 AM,69.8,55.4,60,29.98,5.0,Calm,Calm,-,N/A,,Scattered Clouds,0,2012-11-15 11:30:00
12:00 PM,69,55,52,29.98,5,WSW,6.9,,,,Partly Cloudy,250,2012-11-15 12:00:00
12:00 PM,69.8,55.4,60,29.98,5.0,WSW,6.9,-,N/A,,Scattered Clouds,250,2012-11-15 12:00:00
12:30 PM,69.8,53.6,56,29.98,5.0,West,4.6,-,N/A,,Scattered Clouds,260,2012-11-15 12:30:00
1:00 PM,71.6,53.6,53,29.95,5.0,WNW,1.2,-,N/A,,Scattered Clouds,290,2012-11-15 13:00:00
1:30 PM,71.6,53.6,53,29.95,5.0,Variable,2.3,-,N/A,,Scattered Clouds,0,2012-11-15 13:30:00
2:00 PM,71.6,53.6,53,29.95,5.0,Calm,Calm,-,N/A,,Scattered Clouds,0,2012-11-15 14:00:00
2:30 PM,69.8,51.8,53,29.95,5.0,WNW,5.8,-,N/A,,Scattered Clouds,300,2012-11-15 14:30:00
3:00 PM,69,53,47,29.94,5,NW,5.8,,,,Partly Cloudy,320,2012-11-15 15:00:00
3:00 PM,69.8,53.6,56,29.95,5.0,NW,5.8,-,N/A,,Scattered Clouds,320,2012-11-15 15:00:00
3:30 PM,68.0,55.4,64,29.95,5.0,NW,5.8,-,N/A,,Scattered Clouds,320,2012-11-15 15:30:00
4:00 PM,68.0,55.4,64,29.95,5.0,NW,5.8,-,N/A,,Scattered Clouds,310,2012-11-15 16:00:00
4:30 PM,66.2,55.4,68,29.95,5.0,NNW,3.5,-,N/A,,Scattered Clouds,330,2012-11-15 16:30:00
5:00 PM,66.2,57.2,73,29.95,5.0,North,2.3,-,N/A,,Scattered Clouds,350,2012-11-15 17:00:00
5:30 PM,60.8,55.4,82,29.95,3.7,Calm,Calm,-,N/A,,Partly Cloudy,0,2012-11-15 17:30:00
6:00 PM,,,,,,Calm,Calm,,,,,,2012-11-15 18:00:00
6:00 PM,59.0,55.4,88,29.95,3.1,Calm,Calm,-,N/A,,Partly Cloudy,0,2012-11-15 18:00:00
6:30 PM,57.2,55.4,94,29.95,3.1,Calm,Calm,-,N/A,,Partly Cloudy,0,2012-11-15 18:30:00
7:00 PM,55.4,53.6,94,29.98,3.1,Calm,Calm,-,N/A,,Partly Cloudy,0,2012-11-15 19:00:00
7:30 PM,55.4,51.8,88,29.98,3.1,Calm,Calm,-,N/A,,Partly Cloudy,0,2012-11-15 19:30:00
8:00 PM,53.6,51.8,94,29.98,3.1,Calm,Calm,-,N/A,,Partly Cloudy,0,2012-11-15 20:00:00
8:30 PM,57.2,55.4,94,29.98,3.1,ESE,5.8,-,N/A,,Partly Cloudy,120,2012-11-15 20:30:00
9:00 PM,54,52,92,30.00,3,Calm,Calm,,,,Scattered Clouds,,2012-11-15 21:00:00
9:00 PM,53.6,51.8,94,29.98,3.1,Calm,Calm,-,N/A,,Partly Cloudy,0,2012-11-15 21:00:00
9:30 PM,53.6,51.8,94,30.01,3.1,Calm,Calm,-,N/A,,Partly Cloudy,0,2012-11-15 21:30:00
10:00 PM,55.4,55.4,100,30.01,3.1,SE,3.5,-,N/A,,Partly Cloudy,130,2012-11-15 22:00:00
10:30 PM,55.4,53.6,94,29.98,3.1,Calm,Calm,-,N/A,,Partly Cloudy,0,2012-11-15 22:30:00
11:00 PM,57.2,55.4,94,29.98,3.1,Calm,Calm,-,N/A,,Partly Cloudy,0,2012-11-15 23:00:00
11:30 PM,55.4,53.6,94,29.98,3.1,Calm,Calm,-,N/A,,Partly Cloudy,0,2012-11-15 23:30:00